Weather History for Lemoore (Abandoned) Willett A, CO

Change the Weather History Date:

Thursday, February 27, 2014

  Actual Average (KBJC) Record (KBJC)
Temperature  
Mean Temperature 43 °F -  
Max Temperature 63 °F 42 °F 71 °F (2006)
Min Temperature 23 °F 23 °F 11 °F (1987)
Degree Days  
Heating Degree Days 22    
Moisture  
Dew Point 26 °F    
Average Humidity 59    
Maximum Humidity 89    
Minimum Humidity 21    
Precipitation  
Precipitation 0.00 in - - ()
Sea Level Pressure  
Sea Level Pressure 29.69 in    
Wind  
Wind Speed 3 mph (WNW)    
Max Wind Speed 15 mph    
Max Gust Speed 18 mph    
Visibility 10 miles    
Events      
Averages and records for this station are not official NWS values.
T = Trace of Precipitation, MM = Missing Value Source: NWS Daily Summary

Daily Weather History Graph

Daily Weather History Graph

Search for Another Location

Airport:

Trip Planner

Search our weather history database for the weather conditions in past years. The results will help you decide how hot, cold, wet, or windy it might be!

Date:

Astronomy

Feb. 27, 2014 Rise Set
Actual Time 6:36 AM MST 5:50 PM MST
Civil Twilight 6:09 AM MST 6:17 PM MST
Nautical Twilight 5:38 AM MST 6:49 PM MST
Astronomical Twilight 5:06 AM MST 7:20 PM MST
Moon 5:11 AM MST (2/27) 4:18 PM MST (2/27)
Length of Visible Light 12h 07m
Length of Day
11h 13m
Waning Crescent, 4% of the Moon is Illuminated
Feb 27
Waning Crescent
Mar 1
New
Mar 8
First Quarter
Mar 16
Full
Mar 23
Last Quarter

Hourly Weather History & Observations

Time (MST) Temp. Windchill Dew Point Humidity Pressure Visibility Wind Dir Wind Speed Gust Speed Precip Events Conditions
12:12 AM 23.7 °F - 20.1 °F 86% 29.91 in 10.0 mi Calm Calm - N/A   Clear
12:32 AM 23.2 °F - 20.1 °F 88% 29.91 in 10.0 mi Calm Calm - N/A   Clear
12:52 AM 23.7 °F - 19.9 °F 85% 29.91 in 10.0 mi Calm Calm - N/A   Clear
1:12 AM 23.2 °F 18.7 °F 19.9 °F 87% 29.89 in 10.0 mi SSW 3.5 mph - N/A   Clear
1:32 AM 25.0 °F 20.7 °F 21.7 °F 87% 29.89 in 10.0 mi WSW 3.5 mph - N/A   Clear
1:52 AM 24.8 °F - 21.2 °F 86% 29.88 in 10.0 mi Calm Calm - N/A   Clear
2:12 AM 25.5 °F - 22.1 °F 87% 29.88 in 10.0 mi Calm Calm - N/A   Clear
2:32 AM 25.2 °F 19.5 °F 21.7 °F 87% 29.87 in 10.0 mi SW 4.6 mph - N/A   Clear
2:52 AM 25.9 °F 20.3 °F 22.1 °F 86% 29.85 in 10.0 mi WSW 4.6 mph - N/A   Clear
3:12 AM 25.3 °F 21.1 °F 21.9 °F 87% 29.84 in 10.0 mi SW 3.5 mph - N/A   Clear
3:32 AM 27.0 °F 21.6 °F 23.0 °F 85% 29.84 in 10.0 mi West 4.6 mph - N/A   Clear
3:52 AM 27.1 °F 23.2 °F 23.4 °F 86% 29.83 in 10.0 mi West 3.5 mph - N/A   Clear
4:12 AM 27.0 °F - 23.2 °F 86% 29.83 in 10.0 mi Calm Calm - N/A   Clear
4:32 AM 26.6 °F - 22.8 °F 86% 29.82 in 10.0 mi Calm Calm - N/A   Clear
4:52 AM 27.1 °F - 23.4 °F 86% 29.82 in 10.0 mi Calm Calm - N/A   Clear
5:12 AM 27.1 °F 23.2 °F 23.0 °F 84% 29.81 in 10.0 mi West 3.5 mph - N/A   Clear
5:32 AM 27.1 °F 23.2 °F 23.4 °F 86% 29.80 in 10.0 mi North 3.5 mph - N/A   Clear
5:52 AM 27.3 °F - 23.0 °F 84% 29.80 in 10.0 mi Calm Calm - N/A   Clear
6:12 AM 26.4 °F - 23.0 °F 87% 29.79 in 10.0 mi Calm Calm - N/A   Scattered Clouds
6:32 AM 26.8 °F - 22.8 °F 85% 29.77 in 10.0 mi Calm Calm - N/A   Scattered Clouds
6:52 AM 26.4 °F - 23.5 °F 89% 29.77 in 10.0 mi Calm Calm - N/A   Clear
7:12 AM 28.2 °F 23.1 °F 24.3 °F 85% 29.76 in 10.0 mi SSW 4.6 mph - N/A   Clear
7:32 AM 32.0 °F 26.4 °F 26.1 °F 79% 29.76 in 10.0 mi NNW 5.8 mph - N/A   Clear
7:52 AM 32.9 °F - 26.2 °F 76% 29.76 in 10.0 mi Calm Calm - N/A   Clear
8:12 AM 32.7 °F - 26.6 °F 78% 29.75 in 10.0 mi Calm Calm - N/A   Scattered Clouds
8:32 AM 37.6 °F - 27.7 °F 67% 29.74 in 10.0 mi Calm Calm - N/A   Mostly Cloudy
8:52 AM 41.2 °F - 29.7 °F 64% 29.74 in 10.0 mi Calm Calm - N/A   Scattered Clouds
9:12 AM 42.8 °F - 29.5 °F 59% 29.73 in 10.0 mi Calm Calm - N/A   Mostly Cloudy
9:32 AM 47.7 °F - 30.9 °F 52% 29.71 in 10.0 mi NNE 4.6 mph - N/A   Overcast
9:52 AM 49.6 °F - 30.6 °F 48% 29.70 in 10.0 mi Calm Calm - N/A   Overcast
10:12 AM 52.9 °F - 30.0 °F 42% 29.69 in 10.0 mi Calm Calm - N/A   Overcast
10:32 AM 62.6 °F - 27.9 °F 27% 29.68 in 10.0 mi Calm Calm - N/A   Overcast
10:52 AM 63.0 °F - 22.1 °F 21% 29.67 in 10.0 mi SSW 9.2 mph - N/A   Overcast
11:12 AM 60.3 °F - 22.8 °F 24% 29.66 in 10.0 mi SSW 8.1 mph - N/A   Overcast
11:32 AM 60.1 °F - 29.8 °F 32% 29.66 in 10.0 mi NE 5.8 mph - N/A   Overcast
11:52 AM 57.9 °F - 30.7 °F 36% 29.65 in 10.0 mi NNE 6.9 mph - N/A   Overcast
12:12 PM 59.4 °F - 28.4 °F 31% 29.64 in 10.0 mi ENE 8.1 mph - N/A   Overcast
12:32 PM 61.3 °F - 21.6 °F 22% 29.63 in 10.0 mi South 5.8 mph - N/A   Overcast
12:52 PM 60.6 °F - 21.4 °F 22% 29.61 in 10.0 mi South 8.1 mph - N/A   Overcast
1:12 PM 60.6 °F - 22.1 °F 23% 29.61 in 10.0 mi SSE 4.6 mph - N/A   Overcast
1:32 PM 60.6 °F - 25.2 °F 26% 29.60 in 10.0 mi WSW 15.0 mph - N/A   Overcast
1:52 PM 61.3 °F - 25.3 °F 25% 29.59 in 10.0 mi WSW 11.5 mph 16.1 mph N/A   Mostly Cloudy
2:12 PM 63.0 °F - 24.8 °F 23% 29.58 in 10.0 mi SW 9.2 mph 17.3 mph N/A   Mostly Cloudy
2:32 PM 60.6 °F - 25.0 °F 26% 29.58 in 10.0 mi WSW 15.0 mph 18.4 mph N/A   Overcast
2:52 PM 58.1 °F - 26.6 °F 30% 29.58 in 10.0 mi WSW 11.5 mph - N/A   Mostly Cloudy
3:12 PM 57.6 °F - 27.1 °F 31% 29.58 in 10.0 mi WSW 10.4 mph 17.3 mph N/A   Mostly Cloudy
3:32 PM 57.6 °F - 26.6 °F 31% 29.58 in 10.0 mi WSW 10.4 mph 16.1 mph N/A   Overcast
3:52 PM 59.7 °F - 27.3 °F 29% 29.57 in 10.0 mi West 8.1 mph - N/A   Overcast
4:12 PM 62.4 °F - 27.0 °F 26% 29.56 in 10.0 mi SW 6.9 mph - N/A   Mostly Cloudy
4:32 PM 60.4 °F - 27.3 °F 28% 29.56 in 10.0 mi West 11.5 mph 16.1 mph N/A   Scattered Clouds
4:52 PM 56.1 °F - 28.0 °F 34% 29.56 in 10.0 mi West 11.5 mph - N/A   Clear
5:12 PM 55.4 °F - 27.7 °F 35% 29.56 in 10.0 mi West 9.2 mph - N/A   Mostly Cloudy
5:32 PM 54.9 °F - 28.2 °F 36% 29.56 in 10.0 mi WSW 9.2 mph - N/A   Overcast
5:52 PM 53.4 °F - 29.1 °F 39% 29.56 in 10.0 mi West 6.9 mph - N/A   Overcast
6:12 PM 51.3 °F - 29.7 °F 44% 29.57 in 10.0 mi NNW 4.6 mph - N/A   Mostly Cloudy
6:32 PM 49.6 °F - 30.0 °F 47% 29.57 in 10.0 mi North 9.2 mph - N/A   Overcast
6:52 PM 48.6 °F - 30.9 °F 51% 29.58 in 10.0 mi North 5.8 mph - N/A   Overcast
7:12 PM 48.4 °F - 31.1 °F 51% 29.58 in 10.0 mi NNE 4.6 mph - N/A   Overcast
7:32 PM 46.2 °F 45.0 °F 31.1 °F 56% 29.58 in 10.0 mi NNW 3.5 mph - N/A   Mostly Cloudy
7:52 PM 45.5 °F 44.2 °F 31.6 °F 58% 29.58 in 10.0 mi North 3.5 mph - N/A   Mostly Cloudy
8:12 PM 46.4 °F 45.2 °F 31.5 °F 56% 29.58 in 10.0 mi WNW 3.5 mph - N/A   Overcast
8:32 PM 45.1 °F 43.7 °F 31.6 °F 59% 29.58 in 10.0 mi NNW 3.5 mph - N/A   Overcast
8:52 PM 45.1 °F 43.7 °F 31.6 °F 59% 29.58 in 10.0 mi NNW 3.5 mph - N/A   Overcast
9:12 PM 42.6 °F 39.9 °F 31.1 °F 64% 29.58 in 10.0 mi NW 4.6 mph - N/A   Mostly Cloudy
9:32 PM 40.8 °F 36.9 °F 30.4 °F 66% 29.59 in 10.0 mi WNW 5.8 mph - N/A   Scattered Clouds
9:52 PM 39.2 °F 37.0 °F 30.2 °F 70% 29.59 in 10.0 mi NW 3.5 mph - N/A   Scattered Clouds
10:12 PM 39.6 °F 37.4 °F 31.1 °F 72% 29.59 in 10.0 mi North 3.5 mph - N/A   Overcast
10:32 PM 40.3 °F 36.3 °F 31.6 °F 71% 29.59 in 10.0 mi NNW 5.8 mph - N/A   Mostly Cloudy
10:52 PM 40.6 °F 36.7 °F 31.6 °F 70% 29.58 in 10.0 mi NW 5.8 mph - N/A   Clear
11:12 PM 41.2 °F 39.2 °F 31.1 °F 67% 29.58 in 10.0 mi NNW 3.5 mph - N/A   Scattered Clouds
11:32 PM 39.7 °F 34.9 °F 30.0 °F 68% 29.58 in 10.0 mi NW 6.9 mph - N/A   Scattered Clouds
11:52 PM 38.7 °F 34.3 °F 30.6 °F 73% 29.59 in 10.0 mi NNW 5.8 mph - N/A   Scattered Clouds